Simultaneous Nadir Overpasses (SNOs) Predictions

Prediction of SNOs between GOES-16 and AQUA Satellite Orbit:

Table of predicted SNOs for the next 14.0 days since TLE Epoch: 6/10/2023
Index Date Time (GOES-16) GOES-16 Lat,Lon AQUA Lat,Lon Distance(km) Time Diff (sec)
1 06/11/2023 18:39:56 0.02, -75.19 0.61, -72.38 319.56 80
2 06/12/2023 06:58:02 -0.03, -75.20 0.45, -77.41 251.99 80
3 06/14/2023 06:46:36 -0.03, -75.21 -0.28, -73.97 140.94 80
4 06/14/2023 19:04:51 0.03, -75.22 -0.77, -79.04 434.73 80
5 06/16/2023 18:50:44 0.04, -75.24 -0.06, -75.59 41.11 80
6 06/18/2023 18:39:17 0.04, -75.26 0.69, -72.15 353.25 80
7 06/19/2023 06:57:23 -0.04, -75.27 0.35, -77.19 217.62 80
8 06/21/2023 06:45:55 -0.04, -75.30 -0.37, -73.74 177.79 80
9 06/21/2023 19:04:09 0.05, -75.31 -0.71, -78.80 397.34 80
10 06/23/2023 18:50:01 0.05, -75.35 0.05, -75.35 0.62 80
